Location: Foligno
(42.9600°N, 12.7050°E)
Time: 11:29:28
(UTC+02:00)

ISS - Pass Details

Date: 13 May 2021
Orbit: 417 x 422 km, 51.6° (Epoch: 15 May)

Event Time Altitude Azimuth Distance (km) Brightness Sun altitude
Rises 03:38:35 0° 305° (NW) 2,369 0.0 -19.3°
Reaches altitude 10° 03:40:52 10° 317° (NW) 1,504 -0.9 -19.0°
Maximum altitude 03:43:51 28° 19° (NNE) 822 -1.6 -18.7°
Drops below altitude 10° 03:46:49 10° 81° (E) 1,502 -0.3 -18.3°
Sets 03:49:06 0° 93° (E) 2,366 0.6 -18.0°
